Flag for USA

Past Weather in New City, New York, USA — Yesterday and Last 2 Weeks

Now
83 °F

Scattered clouds.


Feels Like: 83 °F
Forecast: 85 / 66 °F
Wind: 8 mph from Northwest

Location: Westchester County Airport

Current Time: Jul 14, 2020 at 4:34:28 pm

Latest Report: Jul 14, 2020 at 3:56 pm


Visibility: 10 mi

Pressure: 29.93 "Hg

Humidity: 44%

Dew Point: 59 °F

Location of New CityLocation

Past Weather in New City — Graph

°F

New City Temperature Yesterday

Maximum temperature yesterday: 85 °F (at 3:56 pm)
Minimum temperature yesterday: 69 °F (at 5:56 am)
Average temperature yesterday: 77 °F

High & Low Weather Summary for the Past Weeks

 TemperatureHumidityPressure
High90 °F (Jul 2, 3:56 pm)100% (Jul 7, 10:09 pm)30.14 "Hg (Jul 7, 10:09 pm)
Low63 °F (Jun 30, 5:56 am)29% (Jul 5, 3:56 pm)29.61 "Hg (Jul 11, 5:56 pm)
Average74 °F77%29.88 "Hg
* Reported Jun 29 2:56 pm — Jul 14 2:56 pm, New City. Weather by CustomWeather, © 2020

Note: Actual official high and low records may vary slightly from our data, if they occured in-between our weather recording intervals... More about our weather records

New City Weather History for the Previous 24 Hours

Scroll right to see more
 ConditionsComfort  
Time TempWeatherWind HumidityBarometerVisibility
2:56 pm
Tue, Jul 14
82 °FScattered clouds.7 mph44%29.93 "Hg10 mi
1:56 pm82 °FScattered clouds.13 mph48%29.95 "Hg10 mi
12:56 pm80 °FScattered clouds.7 mph51%29.94 "Hg10 mi
11:56 am79 °FScattered clouds.13 mph50%29.93 "Hg10 mi
10:56 am78 °FPassing clouds.12 mph54%29.93 "Hg10 mi
9:56 am76 °FPassing clouds.12 mph60%29.93 "Hg10 mi
8:56 am74 °FSunny.8 mph64%29.92 "Hg10 mi
7:56 am71 °FSunny.8 mph71%29.91 "Hg10 mi
6:56 am69 °FSunny.8 mph76%29.89 "Hg10 mi
5:56 am67 °FSunny.9 mph79%29.88 "Hg10 mi
4:56 am67 °FClear.10 mph79%29.86 "Hg10 mi
3:56 am69 °FClear.10 mph76%29.85 "Hg10 mi
2:56 am69 °FClear.7 mph76%29.84 "Hg10 mi
1:56 am71 °FClear.8 mph68%29.85 "Hg10 mi
12:56 am70 °FPassing clouds.7 mph68%29.85 "Hg10 mi
11:56 pm
Mon, Jul 13
73 °FPassing clouds.6 mph62%29.84 "Hg10 mi
10:56 pm76 °FClear.7 mph54%29.84 "Hg10 mi
9:56 pm74 °FClear.6 mph57%29.83 "Hg10 mi
8:56 pm77 °FClear.5 mph52%29.81 "Hg10 mi
7:56 pm80 °FSunny.7 mph44%29.79 "Hg10 mi
6:56 pm82 °FSunny.9 mph43%29.78 "Hg10 mi
5:56 pm83 °FPassing clouds.13 mph41%29.77 "Hg10 mi
4:56 pm85 °FPassing clouds.14 mph42%29.76 "Hg10 mi
Weather by CustomWeather, © 2020

See weather overview